FW2502 Weather Reports


Display with metric or nautical units.
time (UTC)temp
F
wind
direction
speed
MPH
gust
MPH
rain 1hr
in
rain 24hr
in
rain mn
in
humidity
%
barometer
mb
20201028144236 69 197 0.0 2.0 0.00 0.00 0.00 93 1020.4
20201028143245 69 139 0.0 2.0 0.00 0.00 0.00 94 1020.6
20201028142258 68 177 0.0 0.0 0.00 0.00 0.00 96 1020.8
20201028141251 67 136 0.0 0.0 0.00 0.00 0.00 97 1020.7
20201028140244 66 196 0.0 0.0 0.00 0.00 0.00 98 1020.6
20201028135308 65 151 0.0 0.0 0.00 0.00 0.00 98 1020.7
20201028134309 64 190 0.0 0.0 0.00 0.00 0.00 98 1020.7
20201028133311 64 190 0.0 0.0 0.00 0.00 0.00 98 1020.6
20201028132318 64 190 0.0 0.0 0.00 0.00 0.00 98 1020.6
20201028131317 64 188 0.0 0.0 0.00 0.00 0.00 98 1020.7
20201028130310 63 188 0.0 0.0 0.00 0.00 0.00 98 1020.6
20201028125316 63 204 0.0 0.0 0.00 0.00 0.00 98 1020.5
20201028124321 62 217 0.0 0.0 0.00 0.00 0.00 98 1020.4
20201028123318 62 217 0.0 0.0 0.00 0.00 0.00 98 1020.3
20201028122325 62 217 0.0 0.0 0.00 0.00 0.00 98 1020.3
20201028121257 61 245 0.0 0.0 0.00 0.00 0.00 97 1020.3
20201028120316 61 251 0.0 0.0 0.00 0.00 0.00 97 1020.3
20201028115314 61 251 0.0 0.0 0.00 0.00 0.00 97 1020.4
20201028114234 61 250 0.0 0.0 0.00 0.00 0.00 97 1020.3
20201028113245 61 251 0.0 0.0 0.00 0.00 0.00 97 1020.3
20201028112255 61 251 0.0 0.0 0.00 0.00 0.00 97 1020.3
20201028111226 61 251 0.0 0.0 0.00 0.00 0.00 97 1020.4
20201028110230 61 251 0.0 0.0 0.00 0.00 0.00 97 1020.5
20201028105204 61 251 0.0 0.0 0.00 0.00 0.00 97 1020.5
20201028104223 61 337 0.0 0.0 0.00 0.00 0.00 97 1020.6
20201028103227 60 337 0.0 0.0 0.00 0.00 0.00 97 1020.5
20201028102230 61 337 0.0 0.0 0.00 0.00 0.00 97 1020.5
20201028101253 61 337 0.0 0.0 0.00 0.00 0.00 97 1020.4
20201028100312 61 337 0.0 0.0 0.00 0.00 0.00 97 1020.3
20201028095242 61 337 0.0 0.0 0.00 0.00 0.00 97 1020.3
20201028094307 61 337 0.0 0.0 0.00 0.00 0.00 97 1020.3
20201028093312 61 337 0.0 0.0 0.00 0.00 0.00 97 1020.2
20201028092328 61 337 0.0 0.0 0.00 0.00 0.00 97 1020.2
20201028091345 61 337 0.0 0.0 0.00 0.00 0.00 97 1020.3
20201028090348 61 337 0.0 0.0 0.00 0.00 0.00 97 1020.3
20201028085335 61 337 0.0 0.0 0.00 0.00 0.00 97 1020.3
20201028084258 61 337 0.0 0.0 0.00 0.00 0.00 97 1020.2
20201028083259 61 337 0.0 0.0 0.00 0.00 0.00 97 1020.1
20201028082252 61 337 0.0 0.0 0.00 0.00 0.00 97 1020.2
20201028081255 62 337 0.0 0.0 0.00 0.00 0.00 97 1020.2
20201028080233 62 337 0.0 0.0 0.00 0.00 0.00 97 1020.3
20201028075158 62 337 0.0 0.0 0.00 0.00 0.00 97 1020.3
20201028074221 62 337 0.0 0.0 0.00 0.00 0.00 97 1020.4
20201028073207 62 337 0.0 0.0 0.00 0.00 0.00 97 1020.4
20201028072220 62 337 0.0 0.0 0.00 0.00 0.00 97 1020.4
20201028071158 62 337 0.0 0.0 0.00 0.00 0.00 97 1020.4
20201028070125 61 337 0.0 0.0 0.00 0.00 0.00 97 1020.5
20201028065053 61 337 0.0 0.0 0.00 0.00 0.00 96 1020.6
20201028064113 61 337 0.0 0.0 0.00 0.00 0.00 96 1020.6
20201028063125 62 337 0.0 0.0 0.00 0.00 0.00 97 1020.7
20201028062053 62 337 0.0 0.0 0.00 0.00 0.00 97 1020.7
20201028061057 62 337 0.0 0.0 0.00 0.00 0.00 97 1020.8
20201028060053 62 337 0.0 0.0 0.00 0.00 0.00 97 1020.8
20201028055046 63 337 0.0 0.0 0.00 0.00 0.00 96 1020.8
20201028054100 63 337 0.0 0.0 0.00 0.00 0.00 97 1020.9
20201028053044 63 337 0.0 0.0 0.00 0.00 0.00 97 1020.9
20201028052020 63 337 0.0 0.0 0.00 0.00 0.00 97 1020.9
20201028050954 63 337 0.0 0.0 0.00 0.00 0.00 97 1021.0
20201028050020 62 337 0.0 0.0 0.00 0.00 0.00 97 1021.1
20201028045018 62 337 0.0 0.0 0.00 0.00 0.00 97 1021.1
20201028043938 62 337 0.0 0.0 0.00 0.00 0.00 97 1021.1
20201028042912 61 337 0.0 0.0 0.00 0.00 0.00 96 1021.1
20201028041929 62 337 0.0 0.0 0.00 0.00 0.00 96 1021.1
20201028040942 61 337 0.0 0.0 0.00 0.00 0.00 96 1021.2
20201028035930 61 337 0.0 0.0 0.00 0.00 0.00 96 1021.4
20201028034950 61 337 0.0 0.0 0.00 0.00 0.00 96 1021.6
20201028034019 62 337 0.0 0.0 0.00 0.00 0.00 96 1021.5
20201028032935 62 337 0.0 0.0 0.00 0.00 0.00 96 1021.5
20201028031914 62 338 0.0 0.0 0.00 0.00 0.00 96 1021.6
20201028030922 62 338 0.0 0.0 0.00 0.00 0.00 95 1021.6
20201028025855 63 338 0.0 0.0 0.00 0.00 0.00 95 1021.6
20201028024841 63 338 0.0 0.0 0.00 0.00 0.00 95 1021.5
20201028023805 63 338 0.0 0.0 0.00 0.00 0.00 95 1021.5
20201028022759 63 338 0.0 0.0 0.00 0.00 0.00 95 1021.5
20201028021816 63 338 0.0 0.0 0.00 0.00 0.00 95 1021.4
20201028020812 63 338 0.0 0.0 0.00 0.00 0.00 95 1021.3
20201028015826 63 338 0.0 0.0 0.00 0.00 0.00 95 1021.3
20201028014749 63 338 0.0 0.0 0.00 0.00 0.00 95 1021.3
20201028013758 64 338 0.0 0.0 0.00 0.00 0.00 95 1021.3
20201028012745 64 338 0.0 0.0 0.00 0.00 0.00 95 1021.3
20201028011725 64 338 0.0 0.0 0.00 0.00 0.00 95 1021.3
20201028010737 64 338 0.0 0.0 0.00 0.00 0.00 95 1021.3
20201028005717 64 338 0.0 0.0 0.00 0.00 0.00 94 1021.2
20201028004729 64 338 0.0 0.0 0.00 0.00 0.00 94 1021.1
20201028003717 64 338 0.0 0.0 0.00 0.00 0.00 94 1021.2
20201028002741 65 338 0.0 0.0 0.00 0.00 0.00 93 1021.2
20201028001706 65 338 0.0 0.0 0.00 0.00 0.00 93 1021.2
20201028000716 65 338 0.0 0.0 0.00 0.00 0.00 93 1021.1
20201027235736 66 338 0.0 0.0 0.00 0.00 0.00 93 1021.1
20201027234759 66 338 0.0 0.0 0.00 0.00 0.00 92 1021.0
20201027233735 67 338 0.0 0.0 0.00 0.00 0.00 91 1020.9
20201027232749 67 11 0.0 0.0 0.00 0.00 0.00 91 1020.7
20201027231759 67 11 0.0 0.0 0.00 0.00 0.00 91 1020.7
20201027230741 67 11 0.0 0.0 0.00 0.00 0.00 91 1020.7
20201027225803 67 11 0.0 0.0 0.00 0.00 0.00 91 1020.6
20201027224750 67 10 0.0 0.0 0.00 0.00 0.00 91 1020.5
20201027223810 67 271 0.0 0.0 0.00 0.00 0.00 91 1020.3
20201027222835 68 271 0.0 0.0 0.00 0.00 0.00 90 1020.1
20201027221819 69 271 0.0 0.0 0.00 0.00 0.00 89 1020.2
20201027220745 69 271 0.0 0.0 0.00 0.00 0.00 88 1020.1
20201027215744 70 271 0.0 0.0 0.00 0.00 0.00 87 1020.1
20201027214738 70 271 0.0 0.0 0.00 0.00 0.00 87 1020.0
20201027213709 70 271 0.0 0.0 0.00 0.00 0.00 87 1020.0
20201027212717 70 271 0.0 0.0 0.00 0.00 0.00 86 1020.1
20201027211720 71 271 0.0 0.0 0.00 0.00 0.00 85 1020.2
20201027210735 71 271 0.0 0.0 0.00 0.00 0.00 84 1020.3
20201027205752 71 271 0.0 0.0 0.00 0.00 0.00 83 1020.3
20201027204815 72 271 0.0 0.0 0.00 0.00 0.00 83 1020.4
20201027203813 71 271 0.0 0.0 0.00 0.00 0.00 83 1020.4
20201027202755 72 271 0.0 0.0 0.00 0.00 0.00 83 1020.3
20201027201754 72 271 0.0 0.0 0.00 0.00 0.00 82 1020.2
20201027200810 73 261 0.0 0.0 0.00 0.00 0.00 81 1020.2
20201027195806 73 236 0.0 0.0 0.00 0.00 0.00 81 1020.2
20201027194757 72 204 0.0 0.0 0.00 0.00 0.00 81 1020.3
20201027193819 73 281 0.0 0.0 0.00 0.00 0.00 83 1020.3
20201027192830 73 213 0.0 0.0 0.00 0.00 0.00 80 1020.4
20201027191813 73 215 0.0 0.0 0.00 0.00 0.00 82 1020.4
20201027190814 72 227 0.0 0.0 0.00 0.00 0.00 82 1020.4
20201027185751 72 225 0.0 0.0 0.00 0.00 0.00 82 1020.6
20201027184736 71 205 0.0 0.0 0.00 0.00 0.00 85 1020.6
20201027183709 71 244 0.0 0.0 0.00 0.00 0.00 86 1020.7
20201027182708 71 282 0.0 0.0 0.00 0.00 0.00 84 1020.7
20201027181736 71 222 0.0 0.0 0.00 0.00 0.00 84 1020.9
20201027180702 70 199 0.0 0.0 0.00 0.00 0.00 86 1021.0
20201027175721 70 202 0.0 0.0 0.00 0.00 0.00 85 1021.1
20201027174734 71 293 0.0 0.0 0.00 0.00 0.00 86 1021.1
20201027173757 70 180 0.0 0.0 0.00 0.00 0.00 87 1021.1
20201027172808 69 266 0.0 0.0 0.00 0.00 0.00 88 1021.2
20201027171827 69 346 0.0 1.0 0.00 0.00 0.00 87 1021.4
20201027170809 69 160 0.0 3.0 0.00 0.00 0.00 87 1021.5
20201027165841 68 174 0.0 0.0 0.00 0.00 0.00 91 1021.6
20201027164841 68 201 0.0 1.0 0.00 0.00 0.00 90 1021.9
20201027163845 67 211 0.0 0.0 0.00 0.00 0.00 91 1022.1
20201027162844 67 282 0.0 0.0 0.00 0.00 0.00 92 1022.2
20201027161900 66 212 0.0 0.0 0.00 0.00 0.00 94 1022.3
20201027160859 65 190 0.0 0.0 0.00 0.00 0.00 95 1022.5
20201027155923 65 211 0.0 0.0 0.00 0.00 0.00 96 1022.6
20201027154929 64 211 0.0 0.0 0.00 0.00 0.00 96 1022.7
20201027153929 64 211 0.0 0.0 0.00 0.00 0.00 97 1022.9
20201027152940 63 265 0.0 0.0 0.00 0.00 0.00 97 1022.8
20201027151917 63 212 0.0 0.0 0.00 0.00 0.00 97 1022.8
20201027150922 63 254 0.0 0.0 0.00 0.00 0.00 97 1022.9
20201027145924 62 11 0.0 0.0 0.00 0.00 0.00 97 1022.8
20201027144920 62 11 0.0 0.0 0.00 0.00 0.00 97 1022.9